User: anonymous
Location: Vancouver
(49.2500°N, 123.1330°W)
Time: 00:20:04
(UTC-07:00)
Language:

Iridium 21 - Orbit

View from above orbital plane
View from above orbital plane
View from above satellite
View from above satellite

Ground track
Ground track

The orbit data is extracted from the following two-line orbital elements,

1 25778U 99032B   14108.21587869  .00000295  00000-0  98416-4 0  6942
2 25778 086.3978 347.1626 0001834 104.9653 009.6383 14.34210421782429
Epoch (UTC): 18 April 2014 05:10:51
Eccentricity: 0.0001834
inclination: 86.3978°
perigee height: 776 km
apogee height: 779 km
right ascension of ascending node: 347.1626°
argument of perigee: 104.9653°
revolutions per day: 14.34210421
mean anomaly at epoch: 9.6383°
orbit number at epoch: 78242

The dashed part of the orbit path shows where the satellite is in the earth's shadow,  

DLR